User: anonymous   Login
Location: Unspecified
(0.0000°N, 0.0000°E)
Time: 16:14:24
(UTC+00:00)
Language:

RUBIN 2 - Orbit

View from above orbital plane
View from above orbital plane
View from above satellite
View from above satellite

Ground track
Ground track

The orbit data is extracted from the following two-line orbital elements,

1 27605U 02058A   18202.57974597 -.00000079 +00000-0 +97503-5 0  9997
2 27605 064.5565 328.0466 0069489 321.4723 038.1430 14.74993533838321
Epoch (UTC): 21 July 2018 13:54:50
Eccentricity: 0.0069489
inclination: 64.5565°
perigee height: 596 km
apogee height: 694 km
right ascension of ascending node: 328.0466°
argument of perigee: 321.4723°
revolutions per day: 14.74993533
mean anomaly at epoch: 38.1430°
orbit number at epoch: 83832

The dashed part of the orbit path shows where the satellite is in the earth's shadow,  

DLR